Home   Weather   Currie   Past weeks

Flag for Australia Past Weather in Currie, Tasmania, Australia — Yesterday and Last 2 Weeks

Now
61 °F

Cool.


Feels Like: 61 °F
Forecast: 56 / 63 °F
Wind: 10 mph from West

Location: King Island Airport

Current Time: Jan 21, 2017 at 9:15:52 am

Latest Report: Jan 21, 2017 at 8:00 am


Visibility: N/A

Pressure: 29.92 "Hg

Humidity: 74%

Dew Point: 53 °F

Location of CurrieLocation

Past Weather in Currie — Graph

°F

Currie Temperature Yesterday

Maximum temperature yesterday: 62 °F (at 11:00 am)
Minimum temperature yesterday: 56 °F (at 10:00 pm)
Average temperature yesterday: 59 °F

High & Low Weather Summary for the Past Weeks

 TemperatureHumidityPressure
High73 °F (Jan 6, 4:00 pm)100% (Jan 7, 6:00 am)30.08 "Hg (Jan 7, 6:00 am)
Low42 °F (Jan 19, 7:00 am)41% (Jan 19, 3:00 pm)29.32 "Hg (Jan 13, 11:00 am)
Average62 °F75%29.81 "Hg
* Reported Jan 6 7:00 am — Jan 21 7:00 am, Currie, Weather by CustomWeather, © 2017

Note: Actual official high and low records may vary slightly from our data, if they occured in-between our weather recording intervals... More about our weather records

Advertising

Currie Weather History for the Previous 24 Hours

Scroll right to see more
 ConditionsComfort  
Time TempWeatherWind HumidityBarometerVisibility
7:00 am
Sat, Jan 21
58 °FCool.9 mph77%29.90 "HgN/A
6:00 am57 °FOvercast.12 mph79%29.88 "HgN/A
5:00 am57 °FCool.8 mph84%29.85 "HgN/A
4:00 am56 °FCool.9 mph82%29.84 "HgN/A
3:00 am56 °FOvercast.10 mph79%29.83 "HgN/A
2:00 am56 °FCool.12 mph78%29.83 "HgN/A
1:00 am56 °FCool.12 mph77%29.83 "HgN/A
12:00 am56 °FOvercast.12 mph77%29.83 "HgN/A
11:00 pm
Fri, Jan 20
56 °FCool.14 mph76%29.82 "HgN/A
10:00 pm56 °FCool.16 mph74%29.80 "HgN/A
9:00 pm56 °FOvercast.15 mph75%29.78 "HgN/A
8:00 pm58 °FCool.21 mph69%29.75 "HgN/A
7:00 pm58 °FCool.23 mph72%29.72 "HgN/A
6:00 pm59 °FOvercast.24 mph71%29.70 "HgN/A
5:00 pm61 °FCool.23 mph72%29.67 "HgN/A
4:00 pm60 °FCool.28 mph75%29.65 "HgN/A
3:00 pm58 °FOvercast.24 mph91%29.62 "HgN/A
2:00 pm58 °FCool.21 mph92%29.57 "HgN/A
1:00 pm61 °FCool.24 mph79%29.55 "HgN/A
12:00 pm60 °FOvercast.22 mph86%29.50 "HgN/A
11:00 am62 °FCool.22 mph93%29.41 "HgN/A
10:00 am58 °FCool.21 mph96%29.41 "HgN/A
9:00 am57 °FOvercast.23 mph96%29.38 "HgN/A
Weather by CustomWeather, © 2017

See weather overviewHow to use our weather pages